CW4592 Weather Reports


Display with metric or nautical units.
time (UTC)temp
F
wind
direction
speed
MPH
gust
MPH
rain 1hr
in
rain 24hr
in
rain mn
in
humidity
%
barometer
mb
20260504140954 63 296 3.0 7.0 0.00 0.00 0.00 57 1003.3
20260504140454 63 286 4.0 7.0 0.00 0.00 0.00 57 1003.2
20260504130454 56 282 0.0 3.0 0.00 0.00 0.00 66 1002.7
20260504110454 48 0 0.0 0.0 0.00 0.00 0.00 75 1003.0
20260504081954 50 0 0.0 0.0 0.00 0.00 0.00 71 1004.0
20260504081454 50 0 0.0 0.0 0.00 0.00 0.00 70 1004.0
20260504080954 50 0 0.0 0.0 0.00 0.00 0.00 70 1004.0
20260504080453 50 98 0.0 1.0 0.00 0.00 0.00 70 1004.0
20260504050454 54 0 0.0 0.0 0.00 0.00 0.00 63 1006.2
20260504045953 54 0 0.0 0.0 0.00 0.00 0.00 63 1006.2
20260504045453 54 0 0.0 0.0 0.00 0.00 0.00 60 1006.2
20260504044954 55 0 0.0 0.0 0.00 0.00 0.00 59 1006.2
20260504044453 56 0 0.0 0.0 0.00 0.00 0.00 58 1006.3
20260504043953 56 0 0.0 0.0 0.00 0.00 0.00 56 1006.3
20260504043453 56 0 0.0 0.0 0.00 0.00 0.00 56 1006.3
20260504042453 56 0 0.0 0.0 0.00 0.00 0.00 56 1006.3
20260504041453 56 0 0.0 0.0 0.00 0.00 0.00 56 1006.6
20260504040454 57 0 0.0 0.0 0.00 0.00 0.00 56 1006.7
20260504035953 57 0 0.0 0.0 0.00 0.00 0.00 57 1006.7
20260504035453 56 0 0.0 0.0 0.00 0.00 0.00 58 1006.9
20260504034953 56 0 0.0 0.0 0.00 0.00 0.00 57 1006.9
20260504034453 56 0 0.0 0.0 0.00 0.00 0.00 57 1006.9
20260504033953 56 0 0.0 0.0 0.00 0.00 0.00 56 1007.0
20260504033454 57 0 0.0 0.0 0.00 0.00 0.00 56 1007.0
20260504032953 57 0 0.0 0.0 0.00 0.00 0.00 54 1007.1
20260504030953 59 0 0.0 0.0 0.00 0.00 0.00 50 1007.1
20260504030452 59 0 0.0 0.0 0.00 0.00 0.00 50 1007.1
20260504025953 60 0 0.0 0.0 0.00 0.00 0.00 50 1007.1
20260504025453 60 0 0.0 0.0 0.00 0.00 0.00 49 1007.2
20260504024953 61 0 0.0 0.0 0.00 0.00 0.00 48 1007.2
20260504024453 61 145 0.0 2.0 0.00 0.00 0.00 48 1007.2
20260504022953 62 0 0.0 0.0 0.00 0.00 0.00 45 1007.0
20260504022453 62 0 0.0 0.0 0.00 0.00 0.00 45 1007.0
20260504021953 62 0 0.0 0.0 0.00 0.00 0.00 46 1007.0
20260504020953 63 0 0.0 0.0 0.00 0.00 0.00 47 1007.1
20260504020453 63 270 0.0 1.0 0.00 0.00 0.00 45 1007.2
20260504015953 63 270 0.0 1.0 0.00 0.00 0.00 45 1007.2
20260504015453 64 0 0.0 0.0 0.00 0.00 0.00 44 1007.2
20260504014953 64 0 0.0 0.0 0.00 0.00 0.00 44 1007.3
20260504014454 64 0 0.0 0.0 0.00 0.00 0.00 44 1007.3
20260504013953 65 0 0.0 0.0 0.00 0.00 0.00 43 1007.4
20260504013453 66 0 0.0 0.0 0.00 0.00 0.00 42 1007.5
20260504012953 67 0 0.0 0.0 0.00 0.00 0.00 41 1007.4
20260504012453 68 0 0.0 0.0 0.00 0.00 0.00 40 1007.5
20260504011953 68 0 0.0 0.0 0.00 0.00 0.00 38 1007.6
20260504011453 69 0 0.0 0.0 0.00 0.00 0.00 37 1007.6
20260504010953 70 0 0.0 0.0 0.00 0.00 0.00 35 1007.7
20260504010453 70 283 0.0 1.0 0.00 0.00 0.00 34 1007.7
20260504005953 70 281 0.0 1.0 0.00 0.00 0.00 33 1007.9
20260504005453 70 281 1.0 5.0 0.00 0.00 0.00 33 1008.0
20260504004453 71 285 1.0 3.0 0.00 0.00 0.00 32 1008.0
20260504002953 71 283 0.0 3.0 0.00 0.00 0.00 33 1008.2
20260504002452 71 279 0.0 3.0 0.00 0.00 0.00 34 1008.3
20260504001952 71 283 1.0 3.0 0.00 0.00 0.00 33 1008.3
20260504001452 71 281 1.0 4.0 0.00 0.00 0.00 33 1008.3
20260504000953 72 281 1.0 6.0 0.00 0.00 0.00 33 1008.5
20260504000453 72 278 1.0 6.0 0.00 0.00 0.00 32 1008.5
20260503235953 72 281 1.0 3.0 0.00 0.00 0.00 33 1008.5
20260503235452 72 287 1.0 4.0 0.00 0.00 0.00 32 1008.6
20260503234953 72 287 1.0 5.0 0.00 0.00 0.00 32 1008.7
20260503234453 72 288 1.0 5.0 0.00 0.00 0.00 33 1008.7
20260503233953 72 292 0.0 3.0 0.00 0.00 0.00 33 1008.8
20260503233453 72 274 0.0 3.0 0.00 0.00 0.00 33 1008.9
20260503232952 72 258 1.0 3.0 0.00 0.00 0.00 32 1008.8
20260503231952 72 285 1.0 4.0 0.00 0.00 0.00 32 1008.9
20260503231453 72 289 2.0 6.0 0.00 0.00 0.00 33 1009.0
20260503230953 72 283 2.0 6.0 0.00 0.00 0.00 32 1009.0
20260503230453 72 283 1.0 4.0 0.00 0.00 0.00 32 1008.9
20260503225953 72 286 2.0 6.0 0.00 0.00 0.00 32 1009.0
20260503224953 72 288 3.0 7.0 0.00 0.00 0.00 33 1009.1
20260503223952 72 282 2.0 5.0 0.00 0.00 0.00 31 1009.1
20260503222952 72 275 2.0 5.0 0.00 0.00 0.00 32 1009.2
20260503222452 72 262 1.0 5.0 0.00 0.00 0.00 31 1009.2
20260503221954 72 253 0.0 5.0 0.00 0.00 0.00 32 1009.2
20260503221453 72 279 1.0 5.0 0.00 0.00 0.00 31 1009.2
20260503215952 72 276 2.0 6.0 0.00 0.00 0.00 31 1009.5
20260503214453 72 289 1.0 5.0 0.00 0.00 0.00 33 1009.6
20260503213953 72 290 1.0 4.0 0.00 0.00 0.00 31 1009.7
20260503213452 72 286 2.0 5.0 0.00 0.00 0.00 32 1009.7
20260503212952 72 281 1.0 5.0 0.00 0.00 0.00 31 1009.8
20260503212453 72 272 1.0 4.0 0.00 0.00 0.00 31 1009.7
20260503211953 72 278 2.0 5.0 0.00 0.00 0.00 33 1010.0
20260503211452 72 280 2.0 5.0 0.00 0.00 0.00 31 1010.0
20260503210952 72 281 1.0 5.0 0.00 0.00 0.00 32 1010.1
20260503210452 72 289 1.0 4.0 0.00 0.00 0.00 31 1010.2
20260503205453 72 301 2.0 5.0 0.00 0.00 0.00 30 1010.3
20260503204953 73 293 1.0 5.0 0.00 0.00 0.00 32 1010.4
20260503204452 73 299 1.0 4.0 0.00 0.00 0.00 32 1010.5
20260503203952 72 289 2.0 4.0 0.00 0.00 0.00 33 1010.6
20260503203452 72 282 3.0 6.0 0.00 0.00 0.00 34 1010.7
20260503202953 72 289 2.0 6.0 0.00 0.00 0.00 32 1010.8
20260503202453 73 302 1.0 5.0 0.00 0.00 0.00 31 1010.8
20260503201953 73 318 1.0 5.0 0.00 0.00 0.00 32 1010.9
20260503201452 73 305 1.0 4.0 0.00 0.00 0.00 31 1010.9
20260503200952 72 301 1.0 4.0 0.00 0.00 0.00 31 1011.0
20260503200452 73 292 2.0 6.0 0.00 0.00 0.00 30 1011.1
20260503195953 72 287 1.0 6.0 0.00 0.00 0.00 31 1011.2
20260503195453 73 340 1.0 5.0 0.00 0.00 0.00 31 1011.2
20260503194952 72 295 1.0 6.0 0.00 0.00 0.00 31 1011.2
20260503194452 72 295 2.0 6.0 0.00 0.00 0.00 31 1011.2
20260503193952 72 307 1.0 4.0 0.00 0.00 0.00 31 1011.3
20260503193453 73 238 0.0 3.0 0.00 0.00 0.00 33 1011.1
20260503192452 72 280 1.0 5.0 0.00 0.00 0.00 31 1011.4
20260503191952 72 319 0.0 2.0 0.00 0.00 0.00 32 1011.5
20260503190953 71 302 2.0 6.0 0.00 0.00 0.00 34 1011.6
20260503190452 72 309 1.0 4.0 0.00 0.00 0.00 33 1011.6
20260503185952 72 310 0.0 4.0 0.00 0.00 0.00 34 1011.7
20260503185452 71 319 1.0 4.0 0.00 0.00 0.00 33 1011.7
20260503184952 71 334 1.0 4.0 0.00 0.00 0.00 34 1011.8
20260503184453 71 323 1.0 5.0 0.00 0.00 0.00 34 1011.9
20260503183452 70 300 2.0 7.0 0.00 0.00 0.00 34 1011.9
20260503182953 71 317 1.0 4.0 0.00 0.00 0.00 33 1012.0
20260503182452 71 300 1.0 7.0 0.00 0.00 0.00 35 1012.1
20260503181952 70 295 1.0 7.0 0.00 0.00 0.00 35 1012.1
20260503181452 71 330 0.0 3.0 0.00 0.00 0.00 36 1012.2
20260503180952 70 16 0.0 3.0 0.00 0.00 0.00 35 1012.2
20260503180452 70 314 0.0 3.0 0.00 0.00 0.00 34 1012.4
20260503175953 70 298 1.0 4.0 0.00 0.00 0.00 35 1012.5
20260503175452 69 290 1.0 4.0 0.00 0.00 0.00 36 1012.6
20260503174952 70 300 1.0 7.0 0.00 0.00 0.00 35 1012.7
20260503173952 69 299 1.0 4.0 0.00 0.00 0.00 37 1012.7
20260503173452 69 305 1.0 5.0 0.00 0.00 0.00 36 1012.8
20260503172452 70 294 0.0 2.0 0.00 0.00 0.00 36 1013.0
20260503171952 69 288 1.0 5.0 0.00 0.00 0.00 39 1013.0
20260503171452 68 305 1.0 5.0 0.00 0.00 0.00 38 1013.0
20260503170952 68 305 1.0 5.0 0.00 0.00 0.00 37 1013.2
20260503150952 64 323 0.0 2.0 0.00 0.00 0.00 47 1013.2